Regional Weather Roundup
Issued by NWS

Home | Current Version | Previous Version | Text Only | Print | Product List | Glossary Off
Versions: 1 2 3 4 5 6 7 8 9 10 11 12 13 14 15 16 17 18 19 20 21 22 23 24 25 26 27 28 29 30 31 32 33 34 35 36 37 38 39 40 41 42 43 44 45 46 47 48 49 50

000
ASUS43 KBIS 111002
RWRND

NORTH DAKOTA REGIONAL WEATHER ROUNDUP
NATIONAL WEATHER SERVICE BISMARCK ND
400 AM CST THU FEB 11 2016

NOTE: "FAIR" INDICATES FEW OR NO CLOUDS BELOW 12,000 FEET WITH NO
SIGNIFICANT WEATHER AND/OR OBSTRUCTIONS TO VISIBILITY.


NDZ001>003-009>011-017-111100-
NORTHWEST NORTH DAKOTA

CITY           SKY/WX    TMP DP  RH WIND       PRES   REMARKS
WILLISTON      LGT SNOW  26  23  88 E3        30.08F FOG
MINOT          CLOUDY    15   6  67 CALM      30.15S
MINOT AFB      CLOUDY    12   9  89 SE2       30.14F
$$

NDZ018>021-031>035-040>046-111100-
SOUTHWEST NORTH DAKOTA

CITY           SKY/WX    TMP DP  RH WIND       PRES   REMARKS
BISMARCK       CLOUDY    19  12  74 SE5       30.16F WCI  12
DICKINSON      CLOUDY    25  22  88 SE6       30.04S WCI  18
GARRISON         N/A     15  11  83 SE5       30.13F WCI   8
HETTINGER ARPT CLOUDY    29  24  82 S6        30.06F
$$

NDZ004>008-012>016-024-026-027-054-111100-
NORTHEAST NORTH DAKOTA

CITY           SKY/WX    TMP DP  RH WIND       PRES   REMARKS
GRAND FORKS    PTCLDY     2  -4  76 CALM      30.29R
GRND FRKS AFB  CLOUDY     0  -5  78 SW5       30.28S WCI -10
DEVILS LAKE    FLURRIES   1  -2  87 CALM      30.21F
$$

NDZ022-023-025-028>030-036>039-047>053-111100-
SOUTHEAST NORTH DAKOTA

CITY           SKY/WX    TMP DP  RH WIND       PRES   REMARKS
FARGO          CLOUDY     1  -4  79 W3        30.29R
JAMESTOWN      CLOUDY     6   1  80 S6        30.21F WCI  -4
$$




USA.gov is the U.S. government's official web portal to all federal, state and local government web resources and services.